Hauptseite
METAR-TAF:

METAR-TAF

Flughäfen :

Romorantin, Frankreich

Pruniers

Breite: 47-19N, Länge: 001-41E, Höhe: 85 m

Beobachtung

Neuester Wetterbericht von vor 16 Minuten, um 09:00 UTC
Wind 3 kt aus unterschiedlichen Richtungen
Temperatur 17°C
Luftfeuchtigkeit 72%
Luftdruck 1020 hPa
Sichtweite 10 km oder mehr
Durchbrochene Bewölkung in der Höhe von 1700 ft

METAR: LFYR 230900Z AUTO VRB03KT 9999 BKN017 17/12 Q1020 NOSIG

Zeit: 11:16 (09:16 UTC)


TAF: fehlend

Wetterbeobachtungen und Prognosen von mehr als 4000 Flughäfen (METAR und TAF Bericht).

Die verfügbaren Stationen werden durch gelbe und rote Markierungen auf der Karte dargestellt.

Führen Sie die Maus auf sie, um den Namen der Station zu sehen.

Darauf klicken, um die Beobachtung von Wetterbeobachtungen und Prognosen zu sehen.

Um die Karte zu ändern : klicken Sie auf den grünen Tasten mit einem schwarzen Kreuz Zum Vergrößern, auf den grünen Button mit einem Gedankenstrich zu verkleinern, oder auf die grünen Pfeile für benachbarte Karten.


METAR-TAF: